1512673200.57,27900,5.88,73432.3,-2.19,-35.35,-35.35,0,*56
1512673201.82,27901,5.88,73428.8,-2.17,-35.35,-35.17,0,*59
1512673203.07,27902,5.88,73438.0,-2.19,-35.41,-35.41,0,*54
1512673204.35,27903,5.88,73432.8,-2.17,-35.35,-35.35,0,*5B
1512673205.6,27904,5.88,73430.0,-2.15,-35.53,-35.65,0,*5B
1512673206.84,27905,5.88,73444.3,-2.15,-35.53,-35.65,0,*5A
1512673208.08,27906,5.88,73442.3,-2.15,-35.89,-35.83,0,*56
1512673209.29,27907,5.88,73456.5,-2.15,-36.01,-36.07,0,*5B
1512673210.53,27908,5.88,73462.8,-2.15,-36.25,-36.19,0,*5D
1512673211.77,27909,5.88,73470.0,-2.15,-36.31,-36.25,0,*56
1512673213.01,27910,5.88,73470.0,-2.15,-36.43,-36.61,0,*5B
1512673214.26,27911,5.88,73474.5,-2.15,-36.79,-36.79,0,*5A
1512673215.49,27912,5.88,73474.0,-2.15,-36.79,-36.85,0,*5A
1512673216.72,27913,5.88,73464.0,-2.19,-37.03,-37.21,0,*54
1512673217.95,27914,5.88,73466.8,-2.17,-37.33,-37.15,0,*59
1512673219.18,27915,5.88,73488.8,-2.17,-37.03,-37.15,0,*5B
1512673220.41,27916,5.88,73488.5,-2.19,-37.21,-37.27,0,*57
1512673221.65,27917,5.88,73450.0,-2.17,-37.15,-37.15,0,*5E
1512673222.85,27918,5.88,73452.5,-2.19,-37.03,-37.03,0,*5F
1512673224.14,27919,5.88,73474.3,-2.21,-37.21,-37.09,0,*5F
1512673225.43,27920,5.88,73462.0,-2.21,-37.09,-37.21,0,*55
1512673226.72,27921,5.88,73458.3,-2.21,-37.21,-37.21,0,*5E
1512673228.01,27922,5.88,73460.5,-2.21,-37.09,-37.21,0,*57
1512673229.3,27923,5.88,73462.0,-2.21,-37.09,-37.21,0,*56
1512673230.5,27924,5.94,73462.0,-2.23,-37.27,-37.27,0,*59
1512673231.72,27925,5.88,73460.5,-2.23,-37.27,-37.15,0,*59
1512673232.92,27926,5.88,73466.0,-2.23,-37.27,-37.27,0,*5B
1512673234.13,27927,5.88,73466.8,-2.23,-37.27,-37.33,0,*5F
1512673235.33,27928,5.88,73466.8,-2.27,-37.45,-37.45,0,*51
1512673236.54,27929,5.88,73470.0,-2.27,-37.33,-37.33,0,*50
1512673237.75,27930,5.88,73466.8,-2.27,-37.33,-37.33,0,*58
1512673238.98,27931,5.88,73458.5,-2.27,-37.21,-37.27,0,*5F
1512673240.22,27932,5.88,73448.5,-2.29,-37.03,-37.03,0,*54
1512673241.46,27933,5.88,73470.0,-2.29,-36.97,-37.03,0,*59
1512673242.69,27934,5.88,73498.8,-2.29,-37.15,-37.03,0,*55
1512673243.92,27935,5.88,73488.5,-2.29,-37.33,-37.33,0,*53
1512673245.21,27936,5.88,73486.3,-2.29,-37.21,-37.21,0,*50
1512673246.45,27937,5.88,73490.0,-2.31,-37.39,-37.33,0,*52
1512673247.71,27938,5.88,73490.8,-2.31,-37.39,-37.21,0,*5E
1512673248.98,27939,5.88,73488.3,-2.31,-37.39,-37.39,0,*56
1512673250.27,27940,5.88,73484.5,-2.33,-37.63,-37.63,0,*5A
1512673251.53,27941,5.88,73490.0,-2.33,-37.63,-37.57,0,*5C
1512673252.76,27942,5.88,73492.8,-2.33,-37.57,-37.45,0,*5B
1512673253.97,27943,5.88,73470.8,-2.35,-37.45,-37.45,0,*5F
1512673255.2,27944,5.88,73470.5,-2.37,-37.33,-37.45,0,*5B
1512673256.46,27945,5.88,73480.0,-2.35,-37.39,-37.39,0,*59
1512673257.67,27946,5.88,73480.0,-2.35,-37.45,-37.57,0,*59
1512673258.93,27947,5.88,73480.0,-2.35,-37.39,-37.39,0,*5B
1512673260.17,27948,5.88,73474.5,-2.37,-37.15,-37.27,0,*57
1512673261.4,27949,5.88,73464.5,-2.37,-37.27,-37.27,0,*57
1512673262.63,27950,5.88,73482.5,-2.37,-37.45,-37.45,0,*5F
1512673263.86,27951,5.88,73482.0,-2.37,-37.27,-37.45,0,*5A
1512673265.13,27952,5.88,73490.0,-2.37,-37.33,-37.51,0,*59
1512673266.39,27953,5.88,73498.0,-2.37,-37.45,-37.51,0,*59
1512673267.63,27954,5.88,73494.0,-2.39,-37.51,-37.57,0,*53
1512673268.87,27955,5.88,73496.8,-2.39,-37.69,-37.75,0,*59
1512673270.1,27956,5.88,73506.0,-2.41,-37.57,-37.57,0,*58
1512673271.34,27957,5.88,73498.3,-2.41,-37.15,-37.15,0,*59
1512673272.58,27958,5.88,73484.5,-2.41,-37.03,-37.15,0,*51
1512673273.81,27959,5.88,73484.8,-2.41,-36.97,-37.03,0,*5B
1512673275.03,27960,5.88,73484.8,-2.39,-37.03,-37.03,0,*52
1512673276.3,27961,5.88,73490.0,-2.43,-37.21,-37.39,0,*57
1512673277.53,27962,5.88,73494.5,-2.41,-37.03,-37.15,0,*58
1512673278.79,27963,5.88,73488.5,-2.41,-36.85,-36.79,0,*5D
1512673280.05,27964,5.88,73492.3,-2.41,-36.79,-36.97,0,*59
1512673281.28,27965,5.88,73482.3,-2.41,-36.85,-37.03,0,*57
1512673282.52,27966,5.88,73488.5,-2.39,-36.85,-36.79,0,*57
1512673283.8,27967,5.88,73488.8,-2.41,-36.79,-36.79,0,*5A
1512673285.09,27968,5.88,73486.5,-2.41,-36.61,-36.61,0,*55
1512673286.33,27969,5.88,73486.5,-2.41,-36.43,-36.55,0,*53
1512673287.59,27970,5.88,73480.5,-2.41,-36.67,-36.61,0,*5A
1512673288.8,27971,5.88,73470.5,-2.43,-36.85,-36.85,0,*5F
1512673290.03,27972,5.88,73480.0,-2.43,-36.85,-36.91,0,*59
1512673291.27,27973,5.88,73486.5,-2.43,-37.03,-37.09,0,*57
1512673292.51,27974,5.88,73476.0,-2.43,-37.03,-37.21,0,*5A
1512673293.77,27975,5.88,73488.8,-2.43,-37.09,-37.21,0,*51
1512673295.03,27976,5.88,73470.8,-2.45,-37.09,-37.09,0,*5E
1512673296.29,27977,5.88,73466.8,-2.45,-36.91,-37.09,0,*5F
1512673297.55,27978,5.88,73468.8,-2.43,-36.91,-37.09,0,*56
1512673298.82,27979,5.88,73462.5,-2.43,-36.91,-37.21,0,*5D
1512673300.08,27980,5.88,73456.8,-2.45,-36.91,-37.21,0,*5D
1512673301.29,27981,5.88,73480.8,-2.43,-36.85,-37.03,0,*5F
1512673302.5,27982,5.88,73476.5,-2.43,-36.85,-37.03,0,*5C
1512673303.71,27983,5.88,73470.3,-2.45,-36.85,-37.03,0,*5B
1512673304.95,27984,5.88,73476.3,-2.45,-36.85,-36.91,0,*56
1512673306.18,27985,5.88,73472.0,-2.45,-36.85,-36.91,0,*57
1512673307.41,27986,5.88,73470.3,-2.45,-37.03,-37.39,0,*58
1512673308.65,27987,5.88,73464.8,-2.43,-37.21,-37.27,0,*50
1512673309.88,27988,5.88,73466.8,-2.45,-37.39,-37.57,0,*57
1512673311.12,27989,5.88,73456.5,-2.45,-37.39,-37.57,0,*56
1512673312.37,27990,5.88,73458.5,-2.49,-37.63,-37.81,0,*56
1512673313.63,27991,5.88,73452.5,-2.49,-37.81,-37.69,0,*5D
1512673314.89,27992,5.88,73462.8,-2.49,-37.81,-37.81,0,*58
1512673316.11,27993,5.88,73456.5,-2.49,-37.87,-37.87,0,*59
1512673317.4,27994,5.88,73456.0,-2.51,-37.81,-37.81,0,*57
1512673318.66,27995,5.88,73462.5,-2.51,-37.81,-37.87,0,*50
1512673319.93,27996,5.88,73448.5,-2.53,-37.21,-37.39,0,*5E
1512673321.16,27997,5.88,73452.0,-2.53,-37.15,-37.21,0,*51
1512673322.42,27998,5.88,73446.5,-2.55,-37.03,-37.21,0,*5F
1512673323.65,27999,5.88,73446.0,-2.53,-37.03,-37.21,0,*58
1512673324.89,28000,5.88,73442.0,-2.53,-37.15,-37.21,0,*59
1512673326.12,28001,5.88,73454.0,-2.53,-37.33,-37.51,0,*5B
1512673327.35,28002,5.88,73450.0,-2.53,-37.39,-37.57,0,*54
1512673328.61,28003,5.88,73454.5,-2.55,-37.33,-37.51,0,*5F
1512673329.89,28004,5.88,73472.0,-2.55,-37.39,-37.69,0,*59
1512673331.14,28005,5.88,73462.3,-2.53,-37.51,-37.69,0,*50
1512673332.42,28006,5.88,73462.5,-2.55,-37.39,-37.51,0,*50
1512673333.71,28007,5.94,73458.3,-2.55,-37.39,-37.39,0,*5F
1512673334.99,28008,5.88,73442.0,-2.55,-37.39,-37.51,0,*5E
1512673336.25,28009,5.88,73472.0,-2.57,-37.63,-37.63,0,*53
1512673337.45,28010,5.88,73450.3,-2.57,-37.75,-37.75,0,*5B
1512673338.74,28011,5.88,73456.5,-2.59,-37.81,-37.93,0,*57
1512673339.99,28012,5.88,73460.0,-2.59,-37.87,-37.87,0,*57
1512673341.28,28013,5.88,73464.0,-2.59,-37.81,-37.99,0,*5F
1512673342.54,28014,5.88,73450.8,-2.57,-37.93,-37.81,0,*5C
1512673343.81,28015,5.88,73464.0,-2.59,-37.81,-37.87,0,*56
1512673345.09,28016,5.88,73474.0,-2.59,-37.69,-37.69,0,*53
1512673346.35,28017,5.88,73446.5,-2.61,-37.51,-37.51,0,*59
1512673347.58,28018,5.88,73442.0,-2.61,-37.45,-37.51,0,*53
1512673348.81,28019,5.88,73456.8,-2.61,-37.45,-37.51,0,*52
1512673350.1,28020,5.88,73460.5,-2.63,-37.51,-37.51,0,*5F
1512673351.3,28021,5.88,73452.8,-2.61,-37.33,-37.33,0,*5C
1512673352.51,28022,5.88,73442.0,-2.61,-37.27,-37.15,0,*5E
1512673353.75,28023,5.88,73436.3,-2.63,-36.73,-36.73,0,*5C
1512673354.99,28024,5.88,73426.8,-2.63,-36.43,-36.43,0,*5B
1512673356.2,28025,5.88,73434.8,-2.61,-36.31,-36.19,0,*52
1512673357.44,28026,5.88,73432.8,-2.63,-36.07,-36.01,0,*5F
1512673358.65,28027,5.88,73446.0,-2.61,-36.01,-36.01,0,*5A
1512673359.89,28028,5.88,73450.8,-2.61,-36.01,-35.95,0,*5B
1512673361.18,28029,5.88,73458.0,-2.59,-36.13,-35.95,0,*52
1512673362.47,28030,5.88,73454.0,-2.59,-35.83,-35.83,0,*57
1512673363.74,28031,5.88,73458.8,-2.59,-35.83,-35.77,0,*5D
1512673364.94,28032,5.88,73454.8,-2.57,-35.77,-35.71,0,*5D
1512673366.2,28033,5.88,73454.0,-2.59,-35.59,-35.65,0,*5B
1512673367.45,28034,5.88,73458.5,-2.55,-35.53,-35.47,0,*5A
1512673368.69,28035,5.88,73462.5,-2.55,-35.53,-35.47,0,*5B
1512673369.92,28036,5.88,73468.5,-2.55,-35.71,-35.71,0,*5D
1512673371.13,28037,5.88,73456.5,-2.53,-35.47,-35.47,0,*5A
1512673372.41,28038,5.88,73466.3,-2.55,-35.53,-35.53,0,*53
1512673373.61,28039,5.88,73474.0,-2.53,-36.01,-36.07,0,*52
1512673374.82,28040,5.88,73464.3,-2.53,-36.07,-36.07,0,*5A
1512673376.04,28041,5.88,73460.8,-2.53,-36.19,-36.37,0,*57
1512673377.3,28042,5.88,73470.8,-2.53,-36.37,-36.37,0,*58
1512673378.53,28043,5.88,73456.3,-2.53,-36.19,-36.25,0,*56
1512673379.79,28044,5.88,73458.3,-2.53,-36.37,-36.25,0,*5D
1512673381.02,28045,5.88,73460.5,-2.53,-36.55,-36.61,0,*58
1512673382.26,28046,5.88,73474.0,-2.53,-36.37,-36.55,0,*58
1512673383.53,28047,5.88,73472.3,-2.53,-36.25,-36.25,0,*5D
1512673384.78,28048,5.88,73462.0,-2.53,-35.65,-35.53,0,*57
1512673386.06,28049,5.88,73452.0,-2.51,-35.35,-35.35,0,*51
1512673387.3,28050,5.88,73468.0,-2.51,-35.65,-35.59,0,*56
1512673388.58,28051,5.88,73484.0,-2.51,-35.41,-35.41,0,*58
1512673389.78,28052,5.88,73486.5,-2.49,-35.47,-35.47,0,*52
1512673391.03,28053,5.88,73470.5,-2.49,-35.35,-35.41,0,*50
1512673392.28,28054,5.88,73468.8,-2.49,-35.23,-35.23,0,*54
1512673393.5,28055,5.88,73466.8,-2.43,-35.17,-35.29,0,*52
1512673394.75,28056,5.88,73472.3,-2.45,-35.53,-35.41,0,*59
1512673395.95,28057,5.88,73466.3,-2.45,-35.17,-35.13,0,*5F
1512673397.16,28058,5.88,73442.5,-2.43,-35.13,-35.13,0,*52
1512673398.37,28059,5.88,73452.0,-2.43,-35.13,-35.13,0,*53
1512673399.61,28060,5.88,73452.8,-2.43,-35.35,-35.29,0,*54
1512673400.82,28061,5.88,73454.0,-2.43,-35.17,-35.29,0,*55
1512673402.05,28062,5.88,73444.0,-2.41,-34.89,-34.77,0,*58
1512673403.34,28063,5.88,73444.8,-2.41,-35.07,-34.95,0,*52
1512673404.58,28064,5.88,73452.0,-2.39,-35.23,-35.13,0,*53
1512673405.82,28065,5.88,73452.5,-2.39,-35.35,-35.29,0,*5C
1512673407.08,28066,5.88,73454.5,-2.37,-35.29,-35.23,0,*56
1512673408.33,28067,5.88,73450.5,-2.37,-35.47,-35.29,0,*55
1512673409.56,28068,5.88,73442.3,-2.37,-35.59,-35.47,0,*5D
1512673410.78,28069,5.88,73456.5,-2.35,-35.77,-35.59,0,*5D
1512673411.99,28070,5.88,73446.0,-2.35,-35.89,-35.77,0,*58
1512673413.26,28071,5.88,73442.0,-2.37,-35.77,-35.83,0,*51
1512673414.51,28072,5.88,73430.8,-2.37,-36.01,-36.01,0,*59
1512673415.75,28073,5.88,73446.8,-2.37,-36.19,-36.01,0,*51
1512673416.96,28074,5.88,73448.8,-2.35,-36.07,-36.07,0,*5D
1512673418.25,28075,5.88,73442.5,-2.37,-36.13,-35.95,0,*53
1512673419.46,28076,5.88,73438.5,-2.35,-36.07,-36.07,0,*5F
1512673420.71,28077,5.88,73442.0,-2.35,-36.07,-35.95,0,*56
1512673421.96,28078,5.88,73444.0,-2.35,-36.13,-36.13,0,*51
1512673423.2,28079,5.88,73446.0,-2.35,-36.43,-36.49,0,*5A
1512673424.41,28080,5.88,73466.5,-2.35,-36.43,-36.43,0,*56
1512673425.62,28081,5.88,73456.8,-2.35,-36.31,-36.43,0,*52
1512673426.88,28082,5.88,73460.0,-2.37,-36.19,-36.49,0,*53
1512673428.17,28083,5.88,73452.8,-2.37,-36.37,-36.49,0,*5E
1512673429.46,28084,5.88,73466.8,-2.37,-36.61,-36.61,0,*50
1512673430.72,28085,5.88,73468.3,-2.37,-36.73,-36.79,0,*5B
1512673431.98,28086,5.88,73464.3,-2.37,-36.79,-36.97,0,*52
1512673433.24,28087,5.88,73460.0,-2.37,-36.91,-36.97,0,*55
1512673434.51,28088,5.88,73466.8,-2.37,-36.97,-37.09,0,*5A
1512673435.72,28089,5.88,73466.0,-2.39,-37.15,-37.15,0,*53
1512673436.96,28090,5.88,73464.3,-2.39,-37.15,-37.21,0,*5C
1512673438.18,28091,5.88,73468.8,-2.39,-37.15,-37.33,0,*5E
1512673439.45,28092,5.88,73460.0,-2.39,-37.21,-37.21,0,*59
1512673440.74,28093,5.88,73452.0,-2.41,-37.21,-37.21,0,*57
1512673442.01,28094,5.88,73450.8,-2.39,-37.21,-37.21,0,*5F
1512673443.24,28095,5.88,73450.3,-2.41,-37.33,-37.33,0,*51
1512673444.5,28096,5.88,73448.8,-2.41,-37.33,-37.39,0,*58
1512673445.74,28097,5.88,73458.5,-2.43,-37.39,-37.57,0,*59
1512673446.95,28098,5.88,73466.5,-2.43,-37.45,-37.57,0,*5D
1512673448.18,28099,5.88,73472.0,-2.45,-37.63,-37.75,0,*5E
1512673449.39,28100,5.88,73476.5,-2.43,-37.75,-37.75,0,*5E
1512673450.65,28101,5.88,73480.5,-2.45,-37.63,-37.63,0,*59
1512673451.88,28102,5.88,73478.8,-2.49,-37.45,-37.63,0,*52
1512673453.11,28103,5.88,73464.5,-2.49,-37.33,-37.51,0,*53
1512673454.35,28104,5.88,73452.3,-2.49,-37.45,-37.63,0,*54
1512673455.61,28105,5.88,73456.5,-2.51,-37.27,-37.51,0,*59
1512673456.83,28106,5.88,73458.0,-2.51,-37.15,-37.33,0,*5F
1512673458.03,28107,5.88,73466.5,-2.49,-37.27,-37.45,0,*57
1512673459.26,28108,5.88,73456.8,-2.51,-36.97,-37.27,0,*5F
1512673460.51,28109,5.88,73458.8,-2.51,-37.09,-37.27,0,*58
1512673461.77,28110,5.88,73466.3,-2.51,-37.09,-37.45,0,*54
1512673463.03,28111,5.88,73462.8,-2.51,-37.45,-37.63,0,*59
1512673464.28,28112,5.88,73452.0,-2.51,-37.33,-37.51,0,*5A
1512673465.56,28113,5.88,73462.5,-2.51,-37.63,-37.69,0,*55
1512673466.76,28114,5.88,73458.8,-2.53,-37.57,-37.75,0,*5A
1512673467.97,28115,5.88,73480.3,-2.53,-37.57,-37.87,0,*56
1512673469.21,28116,5.88,73494.0,-2.53,-37.87,-37.93,0,*5D
1512673470.46,28117,5.88,73484.8,-2.55,-37.75,-37.93,0,*57
1512673471.69,28118,5.88,73466.3,-2.55,-37.75,-37.75,0,*50
1512673472.92,28119,5.88,73474.5,-2.57,-37.75,-37.81,0,*58
1512673474.18,28120,5.88,73480.8,-2.57,-37.81,-37.93,0,*5A
1512673475.44,28121,5.88,73482.8,-2.55,-37.75,-37.93,0,*52
1512673476.7,28122,5.88,73490.3,-2.59,-37.99,-37.87,0,*5A
1512673477.94,28123,5.88,73484.0,-2.61,-37.69,-37.87,0,*5F
1512673479.18,28124,5.88,73448.8,-2.59,-36.55,-36.67,0,*52
1512673480.38,28125,5.88,73432.5,-2.57,-36.07,-36.07,0,*5C
1512673481.59,28126,5.88,73430.3,-2.57,-35.77,-35.77,0,*5F
1512673482.84,28127,5.88,73442.8,-2.57,-35.95,-35.89,0,*53
1512673484.06,28128,5.88,73454.0,-2.59,-36.19,-36.19,0,*5F
1512673485.29,28129,5.88,73438.5,-2.57,-35.95,-36.07,0,*58
1512673486.52,28130,5.88,73452.3,-2.57,-35.95,-36.07,0,*50
1512673487.76,28131,5.88,73446.8,-2.59,-36.19,-36.31,0,*5D
1512673488.99,28132,5.88,73440.8,-2.55,-36.01,-36.07,0,*5E
1512673490.25,28133,5.88,73450.5,-2.55,-36.19,-36.25,0,*56
1512673491.51,28134,5.88,73440.8,-2.55,-36.25,-36.55,0,*59
1512673492.74,28135,5.88,73452.5,-2.53,-36.55,-36.61,0,*5E
1512673494.02,28136,5.88,73444.3,-2.55,-36.37,-36.61,0,*5F
1512673495.28,28137,5.88,73446.8,-2.53,-36.79,-36.79,0,*5B
1512673496.53,28138,5.88,73446.0,-2.53,-36.61,-36.61,0,*54
1512673497.79,28139,5.88,73456.5,-2.55,-36.43,-36.61,0,*53
1512673499.03,28140,5.88,73462.5,-2.55,-36.73,-36.73,0,*5D
1512673500.28,28141,5.88,73446.8,-2.53,-36.61,-36.61,0,*5A
1512673501.54,28142,5.88,73432.0,-2.53,-36.37,-36.37,0,*59
1512673502.77,28143,5.88,73434.5,-2.53,-37.03,-37.21,0,*58
1512673504.03,28144,5.88,73444.0,-2.55,-37.33,-37.39,0,*53
1512673505.28,28145,5.88,73436.5,-2.55,-37.51,-37.57,0,*5E
1512673506.54,28146,5.88,73442.8,-2.55,-37.15,-37.21,0,*5C
1512673507.77,28147,5.88,73448.3,-2.57,-37.09,-37.27,0,*54
1512673509.0,28148,5.88,73444.0,-2.57,-37.09,-37.27,0,*5B
1512673510.2,28149,5.88,73446.0,-2.57,-37.03,-37.03,0,*56
1512673511.43,28150,5.88,73448.3,-2.57,-37.39,-37.27,0,*51
1512673512.63,28151,5.88,73460.5,-2.57,-37.45,-37.57,0,*5C
1512673513.87,28152,5.88,73462.0,-2.59,-37.15,-37.15,0,*52
1512673515.12,28153,5.88,73440.3,-2.57,-37.09,-37.21,0,*57
1512673516.41,28154,5.88,73444.5,-2.59,-37.09,-37.09,0,*54
1512673517.64,28155,5.88,73454.0,-2.57,-36.67,-36.79,0,*54
1512673518.87,28156,5.88,73468.0,-2.59,-36.73,-36.73,0,*56
1512673520.11,28157,5.88,73474.0,-2.57,-37.21,-37.27,0,*5F
1512673521.34,28158,5.88,73460.3,-2.57,-37.09,-37.03,0,*5C
1512673522.57,28159,5.88,73448.3,-2.55,-36.73,-36.73,0,*55
1512673523.78,28160,5.88,73460.0,-2.57,-36.85,-36.85,0,*5D
1512673524.99,28161,5.88,73452.5,-2.57,-36.85,-36.67,0,*50
1512673526.19,28162,5.88,73474.5,-2.57,-36.85,-36.85,0,*5F
1512673527.45,28163,5.88,73472.3,-2.59,-37.09,-36.97,0,*56
1512673528.7,28164,5.88,73464.5,-2.57,-36.91,-36.91,0,*59
1512673529.93,28165,5.88,73452.8,-2.59,-36.85,-36.85,0,*56
1512673531.16,28166,5.88,73450.8,-2.57,-36.79,-36.67,0,*54
1512673532.4,28167,5.88,73440.5,-2.59,-36.85,-36.85,0,*54
1512673533.65,28168,5.88,73460.0,-2.57,-36.79,-36.79,0,*55
1512673534.85,28169,5.88,73478.0,-2.57,-36.85,-36.85,0,*54
1512673536.1,28170,5.88,73458.5,-2.55,-36.85,-36.79,0,*5D
1512673537.35,28171,5.88,73452.5,-2.57,-36.79,-36.79,0,*5D
1512673538.61,28172,5.88,73456.0,-2.59,-36.97,-36.91,0,*56
1512673539.84,28173,5.88,73446.5,-2.57,-37.03,-37.09,0,*55
1512673541.1,28174,5.88,73448.3,-2.57,-37.21,-37.09,0,*52
1512673542.33,28175,5.88,73454.8,-2.59,-37.15,-37.27,0,*56
1512673543.53,28176,5.88,73462.0,-2.57,-37.27,-37.33,0,*5F
1512673544.82,28177,5.88,73462.3,-2.59,-37.63,-37.63,0,*55
1512673546.11,28178,5.88,73468.5,-2.59,-37.69,-37.81,0,*5C
1512673547.35,28179,5.88,73468.0,-2.59,-37.27,-37.15,0,*5A
1512673548.58,28180,5.88,73450.5,-2.59,-36.97,-36.97,0,*5D
1512673549.87,28181,5.88,73458.3,-2.59,-37.09,-37.09,0,*5C
1512673551.1,28182,5.88,73462.0,-2.59,-36.97,-36.97,0,*5F
1512673552.38,28183,5.88,73448.5,-2.59,-36.91,-36.91,0,*5E
1512673553.6,28184,5.88,73456.0,-2.61,-36.85,-36.73,0,*5B
1512673554.8,28185,5.88,73460.8,-2.61,-36.85,-36.85,0,*53
1512673556.03,28186,5.88,73470.5,-2.59,-37.15,-37.27,0,*5A
1512673557.24,28187,5.88,73468.0,-2.57,-37.45,-37.57,0,*57
1512673558.5,28188,5.88,73468.5,-2.59,-37.45,-37.51,0,*50
1512673559.7,28189,5.88,73474.3,-2.61,-37.15,-37.27,0,*5E
1512673560.9,28190,5.88,73478.8,-2.61,-37.33,-37.33,0,*57
1512673562.13,28191,5.88,73480.8,-2.61,-37.15,-37.09,0,*5B
1512673563.42,28192,5.88,73464.0,-2.63,-36.91,-36.91,0,*57
1512673564.66,28193,5.88,73468.0,-2.61,-37.09,-37.15,0,*59
1512673565.92,28194,5.88,73474.5,-2.63,-37.21,-37.33,0,*52
1512673567.2,28195,5.88,73464.8,-2.63,-37.39,-37.69,0,*55
1512673568.45,28196,5.88,73466.3,-2.63,-37.57,-37.69,0,*5E
1512673569.68,28197,5.88,73460.5,-2.61,-37.33,-37.69,0,*5F
1512673570.94,28198,5.88,73458.3,-2.63,-37.51,-37.57,0,*5B
1512673572.2,28199,5.88,73454.0,-2.63,-37.87,-37.93,0,*59
1512673573.41,28200,5.88,73458.3,-2.65,-38.17,-38.17,0,*59
1512673574.64,28201,5.88,73458.8,-2.67,-38.43,-38.55,0,*5D
1512673575.88,28202,5.88,73464.3,-2.67,-38.35,-38.55,0,*5F
1512673577.11,28203,5.88,73470.5,-2.67,-38.17,-38.17,0,*58
1512673578.4,28204,5.88,73468.0,-2.67,-37.93,-37.81,0,*5C
1512673579.67,28205,5.88,73470.5,-2.69,-37.99,-37.99,0,*50
1512673580.9,28206,5.88,73476.3,-2.73,-38.17,-38.23,0,*5F
1512673582.13,28207,5.88,73486.3,-2.73,-37.99,-38.05,0,*53
1512673583.39,28208,5.88,73484.8,-2.73,-37.51,-37.63,0,*57
1512673584.6,28209,5.88,73474.3,-2.73,-37.15,-37.15,0,*57
1512673585.82,28210,5.88,73464.0,-2.69,-37.03,-37.03,0,*54
1512673587.03,28211,5.88,73462.5,-2.73,-37.03,-37.03,0,*5E
1512673588.23,28212,5.88,73450.0,-2.73,-37.03,-37.03,0,*5D
1512673589.47,28213,5.88,73452.8,-2.73,-37.03,-37.09,0,*56
1512673590.73,28214,5.88,73458.0,-2.73,-36.91,-37.09,0,*5B
1512673591.96,28215,5.88,73460.3,-2.73,-37.03,-37.09,0,*50
1512673593.16,28216,5.88,73464.8,-2.73,-37.15,-37.27,0,*58
1512673594.37,28217,5.88,73472.3,-2.73,-37.15,-37.15,0,*58
1512673595.64,28218,5.88,73460.8,-2.73,-37.09,-37.09,0,*57
1512673596.89,28219,5.88,73470.3,-2.73,-37.09,-37.09,0,*56
1512673598.11,28220,5.88,73462.8,-2.69,-36.97,-36.97,0,*57
1512673599.37,28221,5.88,73456.5,-2.73,-37.09,-37.09,0,*5D
1512673600.58,28222,5.88,73462.5,-2.73,-37.03,-37.03,0,*5E
1512673601.79,28223,5.88,73460.0,-2.69,-36.97,-36.97,0,*54
1512673603.05,28224,5.88,73460.0,-2.73,-37.09,-37.09,0,*58
1512673604.29,28225,5.88,73454.0,-2.75,-37.03,-37.03,0,*5F
1512673605.52,28226,5.88,73452.3,-2.75,-37.27,-37.27,0,*5C
1512673606.79,28227,5.88,73470.8,-2.75,-37.27,-37.51,0,*5C
1512673608.02,28228,5.88,73474.8,-2.75,-37.33,-37.27,0,*57
1512673609.31,28229,5.88,73458.3,-2.75,-37.09,-37.09,0,*53
1512673610.55,28230,5.88,73452.5,-2.75,-37.03,-37.03,0,*5B
1512673611.83,28231,5.88,73452.5,-2.77,-37.09,-37.09,0,*58
1512673613.12,28232,5.88,73468.0,-2.75,-37.09,-37.09,0,*59
1512673614.36,28233,5.88,73466.5,-2.75,-37.03,-37.03,0,*58
1512673615.62,28234,5.88,73478.3,-2.75,-36.85,-36.91,0,*5A
1512673616.86,28235,5.88,73472.0,-2.75,-36.73,-36.85,0,*57
1512673618.12,28236,5.88,73466.5,-2.75,-36.49,-36.67,0,*51
1512673619.41,28237,5.88,73468.0,-2.75,-36.49,-36.49,0,*5C
1512673620.65,28238,5.88,73468.8,-2.75,-36.55,-36.67,0,*52
1512673621.86,28239,5.88,73466.8,-2.73,-36.55,-36.73,0,*50
1512673623.11,28240,5.88,73476.3,-2.69,-36.49,-36.67,0,*5D
1512673624.36,28241,5.88,73486.5,-2.73,-36.37,-36.49,0,*52
1512673625.6,28242,5.88,73468.3,-2.69,-36.19,-36.13,0,*59
1512673626.85,28243,5.88,73464.3,-2.69,-36.07,-35.95,0,*5A
1512673628.1,28244,5.88,73478.0,-2.69,-35.95,-35.77,0,*59
1512673629.36,28245,5.88,73472.8,-2.69,-36.13,-36.25,0,*51
1512673630.62,28246,5.88,73478.0,-2.69,-36.61,-36.49,0,*5D
1512673631.84,28247,5.88,73476.0,-2.69,-36.67,-36.67,0,*56
1512673633.1,28248,5.88,73474.3,-2.67,-36.85,-36.79,0,*54
1512673634.33,28249,5.88,73474.8,-2.67,-36.97,-36.85,0,*55
1512673635.54,28250,5.88,73470.0,-2.69,-37.03,-36.85,0,*5F
1512673636.76,28251,5.88,73476.3,-2.69,-36.97,-36.85,0,*52
1512673637.97,28252,5.88,73472.8,-2.69,-36.97,-36.85,0,*51
1512673639.21,28253,5.88,73472.3,-2.69,-36.85,-36.79,0,*50
1512673640.44,28254,5.88,73470.5,-2.73,-37.03,-36.91,0,*55
1512673641.65,28255,5.88,73460.3,-2.69,-37.03,-36.97,0,*59
1512673642.86,28256,5.88,73456.3,-2.69,-36.97,-36.97,0,*56
1512673644.1,28257,5.88,73474.0,-2.73,-37.03,-37.09,0,*56
1512673645.31,28258,5.88,73462.8,-2.69,-36.85,-36.97,0,*5B
1512673646.55,28259,5.88,73444.0,-2.73,-36.49,-36.67,0,*5E
1512673647.81,28260,5.88,73432.0,-2.69,-36.49,-36.49,0,*53
1512673649.05,28261,5.88,73414.5,-2.69,-36.25,-36.07,0,*52
1512673650.32,28262,5.88,73418.3,-2.69,-36.13,-35.95,0,*5C
1512673651.6,28263,5.88,73436.3,-2.67,-36.61,-36.49,0,*54
1512673652.84,28264,5.88,73440.8,-2.69,-36.43,-36.49,0,*5D
1512673654.11,28265,5.88,73440.0,-2.69,-36.49,-36.49,0,*56
1512673655.35,28266,5.88,73440.0,-2.69,-36.61,-36.67,0,*53
1512673656.58,28267,5.88,73452.0,-2.69,-36.67,-36.79,0,*5B
1512673657.81,28268,5.88,73458.8,-2.69,-35.89,-35.89,0,*5B
1512673659.06,28269,5.88,73448.5,-2.67,-35.65,-35.71,0,*51
1512673660.32,28270,5.88,73442.0,-2.67,-35.71,-35.65,0,*59
1512673661.59,28271,5.88,73448.8,-2.67,-35.53,-35.65,0,*58
1512673662.86,28272,5.88,73466.5,-2.67,-35.65,-35.65,0,*5E
1512673664.1,28273,5.88,73452.0,-2.67,-35.71,-35.71,0,*5F
1512673665.31,28274,5.88,73450.5,-2.65,-35.89,-35.89,0,*5A
1512673666.55,28275,5.88,73446.0,-2.65,-35.83,-35.71,0,*56
1512673667.82,28276,5.88,73446.3,-2.63,-35.65,-35.65,0,*5E
1512673669.05,28277,5.88,73434.0,-2.63,-35.59,-35.47,0,*50
1512673670.33,28278,5.88,73422.5,-2.59,-35.41,-35.41,0,*59
1512673671.61,28279,5.88,73432.3,-2.59,-35.41,-35.35,0,*5B
1512673672.89,28280,5.88,73450.3,-2.59,-35.41,-35.53,0,*5D
1512673674.15,28281,5.88,73448.8,-2.59,-35.77,-35.65,0,*5C
1512673675.39,28282,5.88,73452.5,-2.59,-35.77,-35.77,0,*5C
1512673676.6,28283,5.88,73446.0,-2.57,-35.77,-35.77,0,*53
1512673677.86,28284,5.88,73442.8,-2.59,-35.77,-35.65,0,*59
1512673679.07,28285,5.88,73456.0,-2.57,-35.89,-35.77,0,*54
1512673680.34,28286,5.88,73456.8,-2.57,-36.25,-36.25,0,*56
1512673681.57,28287,5.88,73474.5,-2.59,-36.73,-36.73,0,*59
1512673682.81,28288,5.88,73486.8,-2.59,-36.97,-36.85,0,*55
1512673684.03,28289,5.88,73476.5,-2.57,-36.13,-36.07,0,*5C
1512673685.27,28290,5.88,73462.5,-2.57,-36.07,-35.95,0,*59
1512673686.52,28291,5.88,73460.3,-2.57,-36.13,-36.13,0,*50
1512673687.78,28292,5.88,73452.0,-2.59,-36.31,-36.13,0,*5D
1512673689.03,28293,5.88,73458.0,-2.57,-36.13,-36.25,0,*57
1512673690.27,28294,5.88,73472.3,-2.59,-36.55,-36.55,0,*5B
1512673691.51,28295,5.88,73476.5,-2.57,-36.61,-36.67,0,*52
1512673692.74,28296,5.88,73478.3,-2.59,-36.73,-36.73,0,*59
1512673693.98,28297,5.88,73492.5,-2.59,-36.73,-36.67,0,*5D
1512673695.27,28298,5.88,73488.8,-2.59,-36.91,-36.91,0,*57
1512673696.5,28299,5.88,73480.0,-2.59,-36.85,-36.85,0,*56
1512673697.78,28300,5.88,73482.0,-2.59,-37.09,-36.91,0,*57
1512673699.0,28301,5.88,73478.3,-2.61,-36.73,-36.55,0,*59
1512673700.23,28302,5.88,73468.0,-2.61,-36.19,-36.13,0,*54
1512673701.49,28303,5.88,73456.8,-2.59,-36.37,-36.19,0,*58
1512673702.72,28304,5.88,73448.3,-2.57,-36.31,-36.13,0,*5D
1512673703.97,28305,5.88,73458.5,-2.57,-36.13,-35.95,0,*51
1512673705.21,28306,5.88,73452.3,-2.59,-36.19,-36.01,0,*58